date,time,DOY,Ta_1_1_1,RH_1_1_1,LWin_1_1_1,LWout_1_1_1,SWin_1_1_1,SWout_1_1_1,PPFD_1_1_1,SWC_1_1_1,Ts_1_1_1
[yyyy-mm-dd],[HH:MM],[ddd.ddd],[K],[%],[W+1m-2],[W+1m-2],[W+1m-2],[W+1m-2],[µmol+1m-2s-1],[m+3m-3],[K]
2013-01-07,00:30,7.020,263.46699999999998,83.699000000000012,-5.4253333333333336,-9999.0,-1.66666666666666721E-003,-1.0539999999999998,1.16666666666666672E-002,-9999.0,279.90999999999991
2013-01-07,01:00,7.041,263.78533333333337,81.106666666666655,-5.1743333333333332,-9999.0,-6.63333333333333552E-002,-1.2233333333333329,1.23333333333333333E-002,-9999.0,279.90999999999991
2013-01-07,01:30,7.062,263.68933333333331,76.058999999999997,-7.2686666666666673,-9999.0,0.13533333333333336,-2.7550000000000003,1.56666666666666690E-002,-9999.0,279.90999999999991
2013-01-07,02:00,7.083,263.71633333333341,68.010666666666665,-7.3063333333333338,-9999.0,0.16833333333333336,-2.3776666666666668,1.33333333333333342E-002,-9999.0,279.90999999999991
2013-01-07,02:30,7.104,264.08100000000002,61.972333333333331,-7.8816666666666686,-9999.0,0.23366666666666672,-2.5143333333333331,8.33333333333333322E-003,-9999.0,279.90999999999991
2013-01-07,03:00,7.124,264.00366666666667,62.596999999999980,-7.5516666666666676,-9999.0,0.14200000000000002,-2.6006666666666667,1.49999999999999977E-002,-9999.0,279.90999999999991
2013-01-07,03:30,7.145,264.28999999999996,58.580333333333336,-7.4683333333333337,-9999.0,0.25100000000000000,-2.3603333333333341,7.66666666666666625E-003,-9999.0,279.90999999999991
2013-01-07,04:00,7.166,264.66766666666672,58.225666666666669,-7.5090000000000012,-9999.0,0.18833333333333335,-2.4650000000000003,1.16666666666666689E-002,-9999.0,279.90999999999991
2013-01-07,04:30,7.187,264.44900000000001,61.927333333333323,-7.3393333333333342,-9999.0,0.11366666666666668,-2.5276666666666681,7.00000000000000188E-003,-9999.0,279.90999999999991
2013-01-07,05:00,7.208,264.43433333333337,66.052333333333323,-7.3283333333333340,-9999.0,0.21766666666666667,-2.4786666666666668,8.00000000000000190E-003,-9999.0,279.90999999999991
2013-01-07,05:30,7.229,265.70433333333341,70.659333333333322,-7.7606666666666655,-9999.0,0.48666666666666664,-2.2893333333333330,7.33333333333333406E-003,-9999.0,279.90999999999991
2013-01-07,06:00,7.249,267.28399999999999,71.312666666666672,-7.9826666666666677,-9999.0,0.44933333333333331,-2.5883333333333329,7.33333333333333406E-003,-9999.0,279.90999999999991
2013-01-07,06:30,7.270,268.26633333333336,68.528999999999982,-8.4539999999999988,-9999.0,0.36099999999999999,-2.7593333333333336,2.66666666666666528E-003,-9999.0,279.90999999999991
2013-01-07,07:00,7.291,268.24700000000001,69.193666666666687,-7.7580000000000000,-9999.0,0.16633333333333333,-2.7490000000000006,1.13333333333333359E-002,-9999.0,279.90999999999991
2013-01-07,07:30,7.312,268.01900000000001,70.719333333333353,-7.5593333333333312,-9999.0,0.42900000000000005,-1.8136666666666668,0.88833333333333331,-9999.0,279.90999999999991
2013-01-07,08:00,7.333,267.76800000000009,72.001999999999995,-7.2076666666666664,-9999.0,3.5023333333333335,10.849666666666668,21.061333333333337,-9999.0,279.90999999999991
2013-01-07,08:30,7.354,267.55700000000002,73.231333333333311,-6.8436666666666675,-9999.0,9.8930000000000007,47.738000000000007,85.644999999999996,-9999.0,279.90999999999991
2013-01-07,09:00,7.374,267.86933333333337,72.763666666666666,-7.6589999999999998,-9999.0,20.225333333333332,110.76166666666668,188.61533333333333,-9999.0,279.90999999999991
2013-01-07,09:30,7.395,268.52366666666671,71.481666666666669,-7.8840000000000003,-9999.0,28.740000000000002,170.42866666666666,304.66766666666661,-9999.0,279.90999999999991
2013-01-07,10:00,7.416,269.49000000000007,69.522000000000006,-7.8330000000000011,-9999.0,40.129666666666672,243.27033333333338,440.48066666666671,-9999.0,279.90999999999991
2013-01-07,10:30,7.437,270.33200000000005,67.635666666666665,-7.5379999999999994,-9999.0,48.392000000000010,295.36300000000006,546.39466666666669,-9999.0,279.90999999999991
2013-01-07,11:00,7.458,271.46366666666671,65.248333333333349,-6.4970000000000017,-9999.0,71.690333333333356,417.35499999999996,781.42099999999994,-9999.0,279.90999999999991
2013-01-07,11:30,7.479,272.02566666666667,64.487333333333325,-7.7066666666666661,-9999.0,41.796000000000006,256.12399999999997,496.40266666666656,-9999.0,279.90999999999991
2013-01-07,12:00,7.499,272.54533333333336,62.924999999999983,-7.8693333333333335,-9999.0,55.121999999999993,341.34866666666676,656.28000000000009,-9999.0,279.90999999999991
2013-01-07,12:30,7.520,273.20833333333331,60.814666666666668,-7.4139999999999997,-9999.0,60.027000000000001,358.81066666666663,694.48099999999999,-9999.0,279.90999999999991
2013-01-07,13:00,7.541,273.23400000000004,60.921666666666674,-6.4556666666666676,-9999.0,51.844000000000023,281.39766666666668,552.89866666666671,-9999.0,279.90999999999991
2013-01-07,13:30,7.562,273.46433333333334,60.346333333333327,-7.3696666666666655,-9999.0,42.645333333333333,244.57566666666668,477.40299999999985,-9999.0,279.90999999999991
2013-01-07,14:00,7.583,273.28333333333336,61.030666666666676,-8.7500000000000000,-9999.0,22.057666666666666,127.19066666666667,265.70366666666666,-9999.0,279.90999999999991
2013-01-07,14:30,7.604,273.48000000000013,60.497666666666660,-9.3862499999999986,-9999.0,31.696666666666665,204.97700000000000,398.84100000000001,-9999.0,279.90999999999991
2013-01-07,15:00,7.624,273.50366666666662,60.672333333333327,-9.5036842105263180,-9999.0,24.464999999999993,156.52433333333332,302.69033333333329,-9999.0,279.90999999999991
2013-01-07,15:30,7.645,273.43866666666673,61.568333333333335,-9999.0,-9999.0,20.309000000000008,129.52966666666669,239.52666666666664,-9999.0,279.90999999999991
2013-01-07,16:00,7.666,273.25200000000001,62.695000000000014,-9999.0,-9999.0,12.379333333333333,70.590666666666678,129.52500000000001,-9999.0,279.90999999999991
2013-01-07,16:30,7.687,272.93500000000006,64.252666666666656,-9999.0,-9999.0,4.3003333333333327,16.831666666666663,39.741999999999990,-9999.0,279.90999999999991
2013-01-07,17:00,7.708,272.46666666666675,66.506000000000000,-9.7454166666666655,-9999.0,0.73566666666666680,-2.1270000000000002,3.2199999999999998,-9999.0,279.90999999999991
2013-01-07,17:30,7.729,272.08466666666675,68.444666666666663,-9.5470370370370379,-9999.0,0.40766666666666662,-3.6180000000000008,3.26666666666666841E-002,-9999.0,279.90999999999991
2013-01-07,18:00,7.749,271.83433333333329,69.570333333333338,-9.4411538461538456,-9999.0,0.58233333333333326,-3.5410000000000008,4.66666666666666619E-003,-9999.0,279.90999999999991
2013-01-07,18:30,7.770,271.76833333333332,69.773666666666671,-9.2016666666666662,-9999.0,0.46200000000000002,-3.3243333333333336,2.66666666666666658E-003,-9999.0,279.90999999999991
2013-01-07,19:00,7.791,271.42300000000006,71.747666666666660,-8.8503333333333334,-9999.0,0.34733333333333322,-3.1576666666666662,5.00000000000000010E-003,-9999.0,279.90999999999991
2013-01-07,19:30,7.812,271.07466666666670,73.858999999999980,-8.5563333333333347,-9999.0,0.42066666666666680,-3.1203333333333334,3.33333333333333355E-003,-9999.0,279.90999999999991
2013-01-07,20:00,7.833,270.86666666666667,75.188000000000017,-8.5993333333333339,-9999.0,0.48000000000000004,-3.1893333333333334,4.33333333333333313E-003,-9999.0,279.90999999999991
2013-01-07,20:30,7.854,270.68333333333334,76.382000000000019,-8.7446666666666673,-9999.0,0.54066666666666685,-3.2746666666666671,7.33333333333333406E-003,-9999.0,279.90999999999991
2013-01-07,21:00,7.874,270.48266666666666,77.653666666666652,-8.7796666666666692,-9999.0,0.53766666666666663,-3.2903333333333333,3.66666666666666616E-003,-9999.0,279.90999999999991
2013-01-07,21:30,7.895,270.23466666666667,79.018999999999991,-8.9000000000000004,-9999.0,0.54833333333333334,-3.3626666666666667,1.00000000000000019E-002,-9999.0,279.90999999999991
2013-01-07,22:00,7.916,270.12600000000003,79.638333333333350,-8.8706666666666667,-9999.0,0.53933333333333333,-3.3063333333333338,8.33333333333333495E-003,-9999.0,279.90999999999991
2013-01-07,22:30,7.937,270.07500000000005,79.868000000000009,-8.8109999999999999,-9999.0,0.61066666666666680,-3.2189999999999999,6.33333333333333404E-003,-9999.0,279.90999999999991
2013-01-07,23:00,7.958,269.91100000000006,80.656666666666680,-8.8620000000000019,-9999.0,0.52000000000000013,-3.3399999999999994,6.00000000000000099E-003,-9999.0,279.90999999999991
2013-01-07,23:30,7.979,269.68733333333341,81.744999999999990,-8.8539999999999974,-9999.0,0.55566666666666664,-3.2936666666666672,1.00000000000000019E-002,-9999.0,279.90999999999991
2013-01-08,00:00,8.000,269.44599999999997,82.771666666666675,-9.2163333333333348,-9999.0,0.57700000000000007,-3.3953333333333329,7.00000000000000101E-003,-9999.0,279.90999999999991
